Overview Statistics Trail Chart Weather Telemetry Raw packets
 

This is the latest recevied weather packets stored in our database for station/object KN6WGU. If no packets are shown the sender has not sent any weather packets the latest 10 day(s).

<< 60 61 62 63 64 65 66 >>
Time Temp. Humidity Pressure Rain* Wind** Luminosity Snow
1788196285 30° C 64% 1011.3 hPa 0 mm - 254 W/m² -
1788195981 29.44° C 63% 1011.2 hPa 0 mm - 280 W/m² -
1788195678 30° C 63% 1011.1 hPa 0 mm - 219 W/m² -
1788195373 30° C 63% 1011 hPa 0 mm - 237 W/m² -
1788195070 30° C 65% 1011 hPa 0 mm - 263 W/m² -
1788194765 30° C 64% 1011.1 hPa 0 mm - 243 W/m² -
1788194460 30° C 65% 1011.2 hPa 0 mm - 248 W/m² -
1788194155 30.56° C 65% 1011.1 hPa 0 mm - 257 W/m² -
1788193851 30° C 66% 1011.1 hPa 0 mm - 229 W/m² -
1788193550 30° C 65% 1011.1 hPa 0 mm - 193 W/m² -
1788193248 29.44° C 66% 1011.1 hPa 0 mm - 219 W/m² -
1788192944 29.44° C 67% 1011.3 hPa 0 mm - 196 W/m² -
1788192641 29.44° C 66% 1011.1 hPa 0 mm - 167 W/m² -
1788192339 29.44° C 66% 1010.9 hPa 0 mm - 167 W/m² -
1788192036 29.44° C 65% 1011.2 hPa 0 mm - 133 W/m² -
1788191730 29.44° C 66% 1010.9 hPa 0 mm - 169 W/m² -
1788191425 30° C 68% 1010.9 hPa 0 mm - 228 W/m² -
1788191137 29.44° C 69% 1010.8 hPa 0 mm - 178 W/m² -
1788190820 28.89° C 69% 1010.8 hPa 0 mm - 130 W/m² -
1788190515 28.89° C 67% 1010.9 hPa 0 mm - 119 W/m² -
1788190212 28.33° C 67% 1011 hPa 0 mm - 111 W/m² -
1788189907 27.78° C 69% 1011.1 hPa 0 mm - 100 W/m² -
1788189602 28.33° C 69% 1011 hPa 0 mm - 99 W/m² -
1788189301 27.78° C 72% 1011.2 hPa 0 mm - 131 W/m² -
1788188996 27.78° C 71% 1011.1 hPa 0 mm - 140 W/m² -

* Rain latest hour (hover to see other rain measurements)
** Current wind speed in m/s (hover to see current wind gust speed)